Date String (YYYY-MM-DD hh:mm:ss) UTC,Instrument flags,Ambient pressure (hPa),Sample flow (lpm),Bypass flow (lpm),Sample temperature (°C),Ambient temperature (°C),ASC tube jacket temperature (°C),LED temperature (°C),Box temperature (°C),Sample RH (%),Span deviation,Mass concentration (μg/m³),Mass concentration (μg/m³),Mass concentration (μg/m³)
DateTimeUTC,F1_M11,P_M11,Q1_M11,Q2_M11,T1_M11,T2_M11,T3_M11,T4_M11,T5_M11,U1_M11,ZSPAN_M11,X0_M11,X2_M11,X1_M11
2022-03-19 01:00:00,,0825.0,5.00,0.00,24.3,23.2,00.0,33.4,25.9,05.7,0000.0,0008.58,0002.82,0001.64
2022-03-19 01:01:00,,0825.1,5.00,0.00,24.3,23.2,00.0,33.4,25.9,05.6,0000.0,0007.90,0002.81,0001.65
2022-03-19 01:02:00,,0825.0,5.00,0.00,24.3,23.2,00.0,33.4,25.9,05.4,0000.0,0007.86,0002.81,0001.65
2022-03-19 01:03:00,,0825.0,5.01,0.00,24.3,23.2,00.0,33.4,25.9,05.6,0000.0,0008.43,0002.84,0001.66
2022-03-19 01:04:00,,0825.1,4.99,0.00,24.3,23.2,00.0,33.4,25.9,05.8,0000.0,0007.44,0002.85,0001.67
2022-03-19 01:05:00,,0825.1,4.98,0.00,24.3,23.2,00.0,33.4,25.9,05.7,0000.0,0007.30,0002.86,0001.67
2022-03-19 01:06:00,,0825.0,5.01,0.00,24.3,23.2,00.0,33.3,25.9,05.7,0000.0,0007.32,0002.85,0001.67
2022-03-19 01:07:00,,0825.0,4.99,0.00,24.3,23.2,00.0,33.3,25.9,05.7,0000.0,0007.37,0002.89,0001.67
2022-03-19 01:08:00,,0825.1,5.01,0.00,24.3,23.2,00.0,33.3,25.9,05.6,0000.0,0007.21,0002.95,0001.67
2022-03-19 01:09:00,,0825.1,4.99,0.00,24.2,23.2,00.0,33.3,25.7,05.5,0000.0,0006.44,0002.92,0001.66
2022-03-19 01:10:00,,0825.2,5.01,0.00,24.2,23.1,00.0,33.3,25.8,05.7,0000.0,0006.34,0002.85,0001.65
2022-03-19 01:11:00,,0825.2,4.99,0.00,24.2,23.1,00.0,33.3,25.9,05.9,0000.0,0006.53,0002.86,0001.64
2022-03-19 01:12:00,,0825.2,4.99,0.00,24.2,23.1,00.0,33.3,25.9,05.8,0000.0,0006.87,0002.90,0001.63
2022-03-19 01:13:00,,0825.2,5.01,0.00,24.2,23.2,00.0,33.3,25.9,06.0,0000.0,0006.98,0002.89,0001.62
2022-03-19 01:14:00,,0825.2,4.99,0.00,24.2,23.2,00.0,33.3,25.9,06.2,0000.0,0006.27,0002.89,0001.60
2022-03-19 01:15:00,,0825.2,4.99,0.00,24.2,23.2,00.0,33.3,26.0,05.9,0000.0,0005.75,0002.79,0001.58
2022-03-19 01:16:00,,0825.2,5.01,0.00,24.2,23.2,00.0,33.3,26.0,06.2,0000.0,0005.75,0002.79,0001.57
2022-03-19 01:17:00,,0825.2,4.99,0.00,24.3,23.2,00.0,33.3,26.0,06.4,0000.0,0005.89,0002.83,0001.55
2022-03-19 01:18:00,,0825.3,5.01,0.00,24.3,23.3,00.0,33.3,26.0,06.1,0000.0,0005.79,0002.80,0001.55
2022-03-19 01:19:00,,0825.3,5.00,0.00,24.3,23.3,00.0,33.3,26.0,06.2,0000.0,0005.75,0002.73,0001.54
2022-03-19 01:20:00,,0825.2,5.00,0.00,24.3,23.3,00.0,33.3,26.1,06.0,0000.0,0005.62,0002.65,0001.53
2022-03-19 01:21:00,,0825.2,5.01,0.00,24.3,23.4,00.0,33.3,26.1,06.1,0000.0,0005.64,0002.67,0001.52
2022-03-19 01:22:00,,0825.2,5.00,0.00,24.3,23.4,00.0,33.3,26.1,06.3,0000.0,0005.42,0002.64,0001.52
2022-03-19 01:23:00,,0825.2,5.00,0.00,24.3,23.4,00.0,33.3,26.1,06.1,0000.0,0005.15,0002.59,0001.52
2022-03-19 01:24:00,,0825.1,5.01,0.00,24.3,23.4,00.0,33.3,26.0,06.1,0000.0,0005.99,0002.62,0001.53
2022-03-19 01:25:00,,0825.0,5.00,0.00,24.3,23.3,00.0,33.3,26.0,05.8,0000.0,0006.76,0002.68,0001.54
2022-03-19 01:26:00,,0825.1,4.99,0.00,24.3,23.3,00.0,33.3,26.0,05.8,0000.0,0007.10,0002.80,0001.57
2022-03-19 01:27:00,,0825.0,5.00,0.00,24.3,23.2,00.0,33.3,26.0,05.6,0000.0,0007.32,0002.92,0001.62
2022-03-19 01:28:00,,0825.1,5.01,0.00,24.3,23.2,00.0,33.3,26.0,05.4,0000.0,0007.37,0002.97,0001.65
2022-03-19 01:29:00,,0825.1,4.99,0.00,24.2,23.1,00.0,33.3,25.8,05.7,0000.0,0007.40,0002.98,0001.67
2022-03-19 01:30:00,,0825.1,5.01,0.00,24.2,23.1,00.0,33.3,25.7,05.8,0000.0,0007.47,0003.02,0001.67
2022-03-19 01:31:00,,0825.1,5.00,0.00,24.2,23.0,00.0,33.3,25.7,06.0,0000.0,0007.44,0003.06,0001.70
2022-03-19 01:32:00,,0825.0,4.99,0.00,24.2,23.0,00.0,33.2,25.7,05.8,0000.0,0007.47,0003.12,0001.74
2022-03-19 01:33:00,,0824.9,5.01,0.00,24.2,23.0,00.0,33.2,25.6,05.9,0000.0,0007.63,0003.17,0001.77
2022-03-19 01:34:00,,0825.0,4.99,0.00,24.1,23.0,00.0,33.2,25.6,05.6,0000.0,0007.78,0003.23,0001.79
2022-03-19 01:35:00,,0825.1,4.99,0.00,24.1,23.0,00.0,33.2,25.5,05.6,0000.0,0007.43,0003.25,0001.81
2022-03-19 01:36:00,,0825.1,5.01,0.00,24.1,22.9,00.0,33.2,25.5,05.8,0000.0,0007.11,0003.29,0001.84
2022-03-19 01:37:00,,0825.1,4.99,0.00,24.1,22.8,00.0,33.2,25.5,05.9,0000.0,0006.86,0003.25,0001.83
2022-03-19 01:38:00,,0825.0,5.00,0.00,24.1,22.9,00.0,33.2,25.6,06.1,0000.0,0006.79,0003.25,0001.82
2022-03-19 01:39:00,,0825.2,5.00,0.00,24.1,22.9,00.0,33.2,25.5,06.2,0000.0,0006.77,0003.24,0001.79
2022-03-19 01:40:00,,0825.2,5.00,0.00,24.0,22.9,00.0,33.2,25.6,06.1,0000.0,0006.52,0003.21,0001.79
2022-03-19 01:41:00,,0825.2,5.02,0.00,24.0,22.9,00.0,33.2,25.6,06.0,0000.0,0006.37,0003.20,0001.79
2022-03-19 01:42:00,,0825.2,4.99,0.00,24.1,22.9,00.0,33.1,25.6,06.0,0000.0,0006.50,0003.23,0001.78
2022-03-19 01:43:00,,0825.3,4.99,0.00,24.1,22.9,00.0,33.1,25.7,06.2,0000.0,0006.39,0003.19,0001.76
2022-03-19 01:44:00,,0825.2,5.02,0.00,24.1,22.9,00.0,33.1,25.7,06.1,0000.0,0006.37,0003.19,0001.74
2022-03-19 01:45:00,,0825.2,5.00,0.00,24.1,22.9,00.0,33.1,25.7,05.8,0000.0,0006.23,0003.16,0001.73
2022-03-19 01:46:00,,0825.2,4.99,0.00,24.1,23.0,00.0,33.1,25.7,05.9,0000.0,0006.10,0003.15,0001.71
2022-03-19 01:47:00,,0825.3,5.00,0.00,24.1,23.0,00.0,33.1,25.8,06.2,0000.0,0006.57,0003.04,0001.69
2022-03-19 01:48:00,,0825.2,5.00,0.00,24.1,23.0,00.0,33.1,25.9,06.3,0000.0,0006.90,0003.03,0001.68
2022-03-19 01:49:00,,0825.3,4.99,0.00,24.1,23.1,00.0,33.1,25.9,06.3,0000.0,0006.92,0002.97,0001.67
2022-03-19 01:50:00,,0825.3,5.01,0.00,24.2,23.1,00.0,33.1,25.9,06.1,0000.0,0006.87,0002.94,0001.66
2022-03-19 01:51:00,,0825.3,5.00,0.00,24.2,23.1,00.0,33.1,25.9,06.0,0000.0,0006.88,0002.93,0001.66
2022-03-19 01:52:00,,0825.3,5.00,0.00,24.2,23.2,00.0,33.1,25.9,06.0,0000.0,0006.88,0002.91,0001.67
2022-03-19 01:53:00,,0825.3,4.99,0.00,24.2,23.2,00.0,33.2,25.9,05.9,0000.0,0006.70,0002.84,0001.66
2022-03-19 01:54:00,,0825.3,5.00,0.00,24.2,23.2,00.0,33.2,25.9,06.0,0000.0,0006.96,0002.88,0001.65
2022-03-19 01:55:00,,0825.3,5.01,0.00,24.2,23.2,00.0,33.2,26.0,05.9,0000.0,0007.17,0002.80,0001.64
2022-03-19 01:56:00,,0825.3,5.01,0.00,24.2,23.2,00.0,33.2,26.0,05.9,0000.0,0007.06,0002.77,0001.63
2022-03-19 01:57:00,,0825.3,4.99,0.00,24.2,23.3,00.0,33.2,26.0,05.9,0000.0,0007.75,0002.73,0001.61
2022-03-19 01:58:00,,0825.3,5.02,0.00,24.2,23.3,00.0,33.2,26.0,05.8,0000.0,0007.53,0002.72,0001.60
2022-03-19 01:59:00,,0825.3,4.99,0.00,24.3,23.3,00.0,33.2,26.0,05.9,0000.0,0007.18,0002.72,0001.57
